Weather reports worldwide

Advertisment
Trapani/Birgi, Italy (16429): temperature & dewpoint: 15.02.2019 22:00:00 - 21.02.2019 22:00:00 (CET)Trapani/Birgi, Italy (16429): wind speed: 15.02.2019 22:00:00 - 21.02.2019 22:00:00 (CET)Trapani/Birgi, Italy (16429): wind direction: 15.02.2019 22:00:00 - 21.02.2019 22:00:00 (CET)Trapani/Birgi, Italy (16429): reduced air pressure: 15.02.2019 22:00:00 - 21.02.2019 22:00:00 (CET)Trapani/Birgi, Italy (16429): visibility: 15.02.2019 22:00:00 - 21.02.2019 22:00:00 (CET)Trapani/Birgi, Italy (16429): sunshine duration: 15.02.2019 22:00:00 - 21.02.2019 22:00:00 (CET)
Date & Time tt [°C] td [°C] ff [km/h] ff [kn] dd ppp [hPa] vv [km] sd [min]
21.02.2019 22:00:00 - - - - - - - -
21.02.2019 21:00:00 11,8 9,4 15 8 N 1028,1 12 -
21.02.2019 20:00:00 12,0 10,2 13 7 N 1028,0 12 -
21.02.2019 19:00:00 11,8 9,7 13 7 N 1027,7 18 -
21.02.2019 18:00:00 12,2 9,4 16 9 N 1027,7 22 48
21.02.2019 17:00:00 13,4 8,5 21 11 N 1027,4 22 60
21.02.2019 16:00:00 14,2 8,0 26 14 N 1027,3 22 60
21.02.2019 15:00:00 14,4 7,9 26 14 N 1027,4 22 60
21.02.2019 14:00:00 14,8 5,1 21 11 NNW 1027,5 22 -
21.02.2019 13:00:00 15,0 7,3 22 12 N 1027,9 22 60
21.02.2019 12:00:00 15,0 7,3 16 9 N 1028,1 22 60
21.02.2019 11:00:00 13,8 7,1 9 5 N 1028,1 22 60
21.02.2019 10:00:00 12,4 8,1 5 3 NNE 1028,1 22 60
21.02.2019 09:00:00 9,4 7,5 2 1 E 1027,5 22 6
21.02.2019 08:00:00 4,2 2,4 4 2 ESE 1027,2 22 0
21.02.2019 07:00:00 4,0 2,4 2 1 N 1026,3 20 0
21.02.2019 06:00:00 4,2 2,4 4 2 N 1026,2 15 -
21.02.2019 05:00:00 4,4 2,6 5 3 E 1026,0 15 -
21.02.2019 04:00:00 5,0 3,5 5 3 E 1026,0 15 -
21.02.2019 03:00:00 5,8 4,3 5 3 E 1026,0 12 -
21.02.2019 02:00:00 5,8 3,5 4 2 ENE 1025,8 12 -
21.02.2019 01:00:00 5,8 4,3 5 3 E 1025,7 12 -
21.02.2019 00:00:00 5,8 4,8 5 3 ESE 1025,4 12 -
20.02.2019 23:00:00 6,0 5,0 4 2 E 1025,4 12 -
20.02.2019 22:00:00 7,2 6,3 4 2 E 1025,2 12 -
20.02.2019 21:00:00 8,4 7,3 5 3 SE 1025,2 12 -
20.02.2019 20:00:00 10,2 8,8 4 2 N 1024,7 15 -
20.02.2019 19:00:00 10,8 9,1 5 3 NNE 1024,3 16 -
20.02.2019 18:00:00 13,2 10,4 9 5 N 1023,8 20 36
20.02.2019 17:00:00 15,0 8,9 9 5 NNW 1023,7 20 60
20.02.2019 16:00:00 15,0 9,4 15 8 NNW 1023,8 20 60
20.02.2019 15:00:00 15,0 8,9 13 7 NNW 1023,8 20 60
20.02.2019 14:00:00 15,0 8,0 13 7 NNW 1023,7 20 60
20.02.2019 13:00:00 15,2 8,2 13 7 NW 1023,9 20 48
20.02.2019 12:00:00 14,0 9,4 9 5 NNW 1024,3 20 42
20.02.2019 11:00:00 15,6 7,9 4 2 N 1024,2 20 60
20.02.2019 10:00:00 14,0 8,8 8 4 E 1024,2 20 48
20.02.2019 09:00:00 11,0 6,5 8 4 E 1024,1 20 30
20.02.2019 08:00:00 7,8 5,8 9 5 E 1023,7 20 0
20.02.2019 07:00:00 6,8 5,3 11 6 E 1023,1 18 0
20.02.2019 06:00:00 6,2 4,7 9 5 ESE 1022,8 18 -
20.02.2019 05:00:00 7,2 5,7 9 5 ESE 1023,0 18 -
20.02.2019 04:00:00 8,0 6,5 8 4 ESE 1023,1 18 -
20.02.2019 03:00:00 8,0 6,6 8 4 E 1023,2 18 -
20.02.2019 02:00:00 7,8 6,7 5 3 ESE 1023,3 18 -
20.02.2019 01:00:00 8,2 7,0 8 4 ESE 1023,2 18 -
20.02.2019 00:00:00 8,0 6,9 8 4 E 1023,2 18 -
19.02.2019 23:00:00 8,2 7,1 8 4 ESE 1023,2 20 -
19.02.2019 22:00:00 8,2 7,1 8 4 E 1023,2 20 -
19.02.2019 21:00:00 9,0 8,1 8 4 ESE 1022,9 20 -
19.02.2019 20:00:00 9,2 8,4 9 5 SSE 1022,5 20 -
19.02.2019 19:00:00 12,0 10,1 5 3 NE 1022,2 15 -
19.02.2019 18:00:00 14,0 10,2 4 2 N 1022,1 18 12
19.02.2019 17:00:00 15,0 10,0 8 4 SE 1022,1 18 48
19.02.2019 16:00:00 16,0 11,2 13 7 SW 1022,4 20 60
19.02.2019 15:00:00 16,0 11,2 16 9 SSW 1022,9 20 60
19.02.2019 14:00:00 14,8 10,2 13 7 SSW 1023,1 20 18
19.02.2019 13:00:00 14,0 9,2 9 5 SW 1023,9 18 12
19.02.2019 12:00:00 13,8 10,0 9 5 SE 1024,2 18 0
19.02.2019 11:00:00 13,2 10,4 15 8 SSE 1024,1 18 18
19.02.2019 10:00:00 13,4 9,8 16 9 SE 1024,1 18 60
19.02.2019 09:00:00 11,0 8,7 11 6 ESE 1024,1 15 12
19.02.2019 08:00:00 6,6 5,1 11 6 E 1023,8 15 0
19.02.2019 07:00:00 6,0 4,7 8 4 E 1023,4 15 0
19.02.2019 06:00:00 7,0 5,5 8 4 E 1023,2 12 -
19.02.2019 05:00:00 7,0 5,8 9 5 E 1023,2 12 -
19.02.2019 04:00:00 6,0 5,2 9 5 E 1023,6 12 -
19.02.2019 03:00:00 6,0 5,3 9 5 E 1023,6 12 -
19.02.2019 02:00:00 8,0 6,9 9 5 ESE 1024,5 12 -
19.02.2019 01:00:00 8,0 6,9 9 5 E 1024,5 12 -
19.02.2019 00:00:00 8,0 7,3 9 5 E 1024,8 12 -
18.02.2019 23:00:00 8,8 8,4 8 4 ESE 1024,8 10 -
18.02.2019 22:00:00 10,0 9,2 8 4 E 1025,0 12 -
18.02.2019 21:00:00 10,2 8,6 5 3 E 1024,8 12 -
18.02.2019 20:00:00 10,2 8,6 8 4 ESE 1024,6 12 -
18.02.2019 19:00:00 12,2 9,8 2 1 SE 1024,6 20 -
18.02.2019 18:00:00 12,6 10,0 8 4 SW 1024,6 20 6
18.02.2019 17:00:00 13,2 9,7 13 7 SW 1024,7 20 6
18.02.2019 16:00:00 13,6 9,8 15 8 SW 1025,2 20 30
18.02.2019 15:00:00 14,0 9,4 15 8 SW 1025,5 20 42
18.02.2019 14:00:00 15,0 8,9 15 8 SW 1026,0 25 60
18.02.2019 13:00:00 15,0 8,7 13 7 SW 1026,7 25 60
18.02.2019 12:00:00 14,2 7,3 11 6 WSW 1027,1 25 60
18.02.2019 11:00:00 14,0 7,5 4 2 SW 1027,5 25 60
18.02.2019 10:00:00 12,2 8,9 8 4 ESE 1027,5 20 60
18.02.2019 09:00:00 9,2 7,3 11 6 ESE 1027,4 20 60
18.02.2019 08:00:00 6,6 5,7 9 5 E 1027,3 20 24
18.02.2019 07:00:00 6,4 5,5 9 5 ESE 1027,2 16 -
18.02.2019 06:00:00 6,8 5,9 11 6 E 1027,2 12 -
18.02.2019 05:00:00 7,0 6,1 8 4 ESE 1027,1 12 -
18.02.2019 04:00:00 7,0 6,3 9 5 ESE 1027,1 12 -
18.02.2019 03:00:00 7,0 6,0 9 5 E 1027,9 12 -
18.02.2019 02:00:00 7,0 6,1 9 5 E 1028,0 12 -
18.02.2019 01:00:00 7,4 6,7 11 6 E 1028,2 12 -
18.02.2019 00:00:00 7,8 6,7 9 5 E 1028,4 12 -
17.02.2019 23:00:00 7,8 6,9 9 5 E 1028,5 12 -
17.02.2019 22:00:00 7,8 6,7 8 4 E 1028,5 12 -
17.02.2019 21:00:00 8,6 7,5 2 1 NE 1028,4 12 -
17.02.2019 20:00:00 10,2 8,8 8 4 ENE 1028,4 12 -
17.02.2019 19:00:00 10,2 7,8 8 4 NE 1028,1 10 -
17.02.2019 18:00:00 11,0 8,0 9 5 NNE 1027,9 15 0
17.02.2019 17:00:00 14,0 9,2 18 10 N 1027,8 25 60
17.02.2019 16:00:00 14,0 8,6 16 9 N 1028,1 25 60
17.02.2019 15:00:00 14,0 8,4 22 12 NNW 1028,3 25 60
17.02.2019 14:00:00 14,0 7,8 21 11 N 1028,8 25 60
17.02.2019 13:00:00 14,0 7,8 16 9 NNW 1029,5 25 60
17.02.2019 12:00:00 14,0 6,8 15 8 NW 1030,0 25 60
17.02.2019 11:00:00 14,0 5,1 5 3 NE 1030,3 25 60
17.02.2019 10:00:00 12,0 6,3 8 4 E 1030,5 25 60
17.02.2019 09:00:00 9,0 6,6 5 3 E 1030,3 18 60
17.02.2019 08:00:00 5,0 4,3 11 6 SE 1030,6 20 30
17.02.2019 07:00:00 5,2 4,5 9 5 ESE 1030,2 16 -
17.02.2019 06:00:00 5,8 5,4 11 6 ESE 1029,7 12 -
17.02.2019 05:00:00 5,2 4,8 9 5 SE 1029,5 12 -
17.02.2019 04:00:00 5,4 5,0 8 4 ESE 1029,7 12 -
17.02.2019 03:00:00 5,8 5,2 8 4 ESE 1029,8 12 -
17.02.2019 02:00:00 6,0 5,6 4 2 E 1030,2 12 -
17.02.2019 01:00:00 6,0 5,6 8 4 E 1030,2 12 -
17.02.2019 00:00:00 5,4 5,0 4 2 N 1030,2 12 -
16.02.2019 23:00:00 6,0 5,4 5 3 N 1030,4 12 -
16.02.2019 22:00:00 8,4 5,5 5 3 N 1030,5 12 -
16.02.2019 21:00:00 10,0 7,6 4 2 N 1030,4 12 -
16.02.2019 20:00:00 9,8 7,2 4 2 N 1030,2 12 -
16.02.2019 19:00:00 9,4 6,3 8 4 NNE 1029,6 20 -
16.02.2019 18:00:00 11,0 6,4 9 5 NNE 1029,3 22 12
16.02.2019 17:00:00 13,2 5,4 15 8 N 1029,2 22 60
16.02.2019 16:00:00 14,0 5,6 21 11 N 1029,2 22 60
16.02.2019 15:00:00 14,0 5,1 26 14 N 1029,2 22 60
16.02.2019 14:00:00 14,0 5,6 21 11 N 1029,2 22 60
16.02.2019 13:00:00 14,4 3,8 11 6 NE 1029,5 22 60
16.02.2019 12:00:00 15,0 4,1 15 8 ENE 1029,6 10 60
16.02.2019 11:00:00 14,2 4,5 15 8 ENE 1029,4 22 60
16.02.2019 10:00:00 13,2 5,1 13 7 ENE 1029,2 22 60
16.02.2019 09:00:00 10,8 4,1 4 2 N 1029,1 22 36
16.02.2019 08:00:00 6,0 4,7 4 2 SE 1028,1 20 0
16.02.2019 07:00:00 5,2 3,7 5 3 S 1027,2 10 0
16.02.2019 06:00:00 6,0 4,5 5 3 N 1026,8 20 -
16.02.2019 05:00:00 6,2 4,7 4 2 N 1026,3 20 -
16.02.2019 04:00:00 7,6 5,6 8 4 NE 1026,1 20 -
16.02.2019 03:00:00 8,2 5,8 8 4 NE 1025,9 20 -
16.02.2019 02:00:00 9,8 6,7 8 4 NNE 1025,6 20 -
16.02.2019 01:00:00 10,0 6,4 8 4 NE 1025,2 20 -
16.02.2019 00:00:00 10,2 6,0 16 9 NNE 1025,0 20 -
15.02.2019 23:00:00 10,2 6,9 13 7 NNE 1024,9 20 -
15.02.2019 22:00:00 10,2 7,6 15 8 NE 1024,9 20 -

tt = temperature
td = dewpoint
ff = wind speed
dd = wind direction
ppp = reduced air pressure
vv = visibility
sd = sunshine duration

Next stations